• MPC Preparation (Info)

  • MPEC 2019-P87 : 2019 PC2

    The following Minor Planet Electronic Circular may be linked-to from your own Web pages, but must not otherwise be redistributed electronically.

    A form allowing access to any MPEC is at the bottom of this page.


    Read MPEC 2019-P86 Read MPEC 2019-P88


    M.P.E.C. 2019-P87                                Issued 2019 August 12, 04:09 UT  
    
         The Minor Planet Electronic Circulars contain information on unusual
             minor planets and routine data on comets.  They are published
        on behalf of Division F of the International Astronomical Union by the
              Minor Planet Center, Smithsonian Astrophysical Observatory,
                              Cambridge, MA 02138, U.S.A.
    
                 Prepared using the Tamkin Foundation Computer Network
    
                                  MPC@CFA.HARVARD.EDU
                URL https://www.minorplanetcenter.net/    ISSN 1523-6714
    
                                    2019 PC2                                 
    
    
    Observations:
         K19P02C  C2019 07 28.52532421 01 05.925+11 20 11.29         21.8 GVEP087F51
         K19P02C  C2019 07 28.53678721 01 10.686+11 19 44.03         21.8 GVEP087F51
         K19P02C  C2019 07 28.55959821 01 20.224+11 18 50.49         22.2 GVEP087F51
         K19P02C* C2019 08 08.48982 22 24 21.221+02 15 25.43         21.6 wUEP087F51
         K19P02C  C2019 08 08.50321 22 24 26.608+02 14 40.57         21.8 wUEP087F51
         K19P02C  C2019 08 08.51657 22 24 31.991+02 13 55.38         21.6 wUEP087F51
         K19P02C  C2019 08 08.52991 22 24 37.368+02 13 10.68         21.5 wUEP087F51
         K19P02C KC2019 08 09.23005222 29 43.50 +01 33 30.7          21.8 VuEP087H21
         K19P02C KC2019 08 09.23425122 29 45.18 +01 33 16.7          21.9 VuEP087H21
         K19P02C KC2019 08 09.23830622 29 46.79 +01 33 02.9          21.9 VuEP087H21
         K19P02C KC2019 08 11.97552322 48 43.06 -00 59 17.4          21.7 GVEP087L01
         K19P02C pC2019 08 11.99196322 48 49.22 -01 00 11.4          21.7 GVEP087L01
    
    Observer details:
    F51 Pan-STARRS 1, Haleakala.  Observers J. Bulger, K. Chambers, T. Lowe,
        E. Magnier, A. Schultz, M. Willman.  Measurers S. Chastel, M. Huber,
        Y. Ramanjooloo, R. Wainscoat, R. Weryk, K. Chambers, T. de Boer, L. Denneau,
        J. Fairlamb, H. Flewelling, C.-C. Lin, E. Magnier.  
        1.8-m Ritchey-Chretien + CCD.
    H21 Astronomical Research Observatory, Westfield.  Observer R. Holmes.  
        Measurers S. Foglia, L. Buzzi, T. Linder, R. Holmes.  
        1.3-m f/4.0 astrograph + CCD.
    L01 Visnjan Observatory, Tican.  Observers K. Korlevic, F. Valentine.  
        Measurer K. Korlevic.  1.0-m f/2.9 reflector + CCD.
    
    Orbital elements:
    2019 PC2                                                 Earth MOID = 0.0958 AU
    Epoch 2019 Apr. 27.0 TT = JDT 2458600.5                 MPC
    M 328.18224              (2000.0)            P               Q
    n   0.32509263     Peri.  166.24514     +0.66558022     +0.74249928
    a   2.0947457      Node   145.38982     -0.69669618     +0.65440006
    e   0.4718944      Incl.    7.63699     -0.26761429     +0.14302229
    P   3.03           H   25.3           G   0.15           U   6
    Residuals in seconds of arc
    190728 F51  0.1+  0.1+    190808 F51  0.1+  0.0     190809 H21  0.5-  0.7+
    190728 F51  0.1-  0.2-    190808 F51  0.1+  0.2-    190809 H21  0.9-  0.5+
    190728 F51  0.0   0.1+    190808 F51  0.0   0.1+    190811 L01  0.3+  0.4-
    190808 F51  0.1+  0.1-    190809 H21  0.2-  0.6+    190811 L01  0.2-  0.3-
    
    Ephemeris:
    2019 PC2                 a,e,i = 2.09, 0.47, 8                   q = 1.1062
    Date    TT    R. A. (2000) Decl.     Delta      r    Elong.  Phase     V
    2019 07 13    19 26 50.8 +16 10 23   0.1407  1.1306   141.9    33.7    22.7
    ...
    2019 07 28    20 57 14.4 +11 40 16   0.1072  1.1082   148.3    28.8    21.9
    ...
    2019 08 05    21 58 16.0 +05 28 41   0.1021  1.1065   152.9    24.7    21.7
    ...
    2019 08 11    22 42 05.8 -00 04 25   0.1055  1.1100   154.7    23.0    21.7
    2019 08 12    22 48 51.4 -00 59 36   0.1067  1.1109   154.8    22.8    21.8
    2019 08 13    22 55 25.0 -01 54 00   0.1080  1.1120   154.9    22.7    21.8
    ...
    2019 08 19    23 30 09.5 -06 54 45   0.1188  1.1209   154.8    22.6    22.0
    ...
    2019 08 27    00 03 44.3 -12 06 52   0.1399  1.1386   154.6    22.4    22.4
    ...
    2019 09 11    00 35 49.9 -17 38 12   0.1949  1.1881   156.4    19.8    23.1
    
    A. U. Tomatic                (C) Copyright 2019 MPC           M.P.E.C. 2019-P87
    


    Read MPEC 2019-P86 Read MPEC 2019-P88


    MPEC number:

    Enter an MPEC number in one of the following forms:

    • 1997-B01 (the full form)
    • J97B01 (the packed version of the full form)
    • B01 (the abbreviated form)